This demonstration page uses our WeatherBlox Daily Observations layout. Learn more.

Left ArrowRight Arrow

47.50024, -111.30081

Hourly Observations for May 20, 2021

Temp ( °F °C ) Dew Point ( °F °C ) Humidity (%) Winds ( mph kmh ) Pressure ( in mb ) Visibility ( mi km ) Precip ( " mm )
12:53 am 00:53 Cloudy with Light Rain 38 3.3 36 2.2 93 93 NE 13 20 29.96 1014 10 16 0.03 0.76
1:44 am 01:44 Cloudy 39 3.9 36 2.2 89 89 NNE 16 26 29.93 1014 10 16 0.00 0.00
1:53 am 01:53 Cloudy 39 3.9 36 2.2 89 89 NNE 16 26 29.92 1013 10 16 0.00 0.00
2:12 am 02:12 Cloudy with Light Rain 39 3.9 36 2.2 89 89 NE 16 26 29.93 1014 10 16 0.00 0.00
2:38 am 02:38 Cloudy with Light Rain 38 3.3 36 2.2 93 93 NE 15 24 29.92 1013 10 16 0.00 0.00
2:53 am 02:53 Cloudy with Light Rain 39 3.9 36 2.2 89 89 NNE 17 28 29.90 1013 10 16 0.00 0.00
3:53 am 03:53 Cloudy 39 3.9 36 2.2 89 89 N 15 24 29.92 1013 10 16 0.02 0.51
4:25 am 04:25 Cloudy with Light Rain 38 3.3 35 1.7 89 89 N 17 28 29.94 1014 10 16 0.01 0.25
4:41 am 04:41 Cloudy with Light Rain 38 3.3 35 1.7 89 89 N 21 33 29.92 1013 10 16 0.01 0.25
4:48 am 04:48 Cloudy with Light Rain 37 3 36 2 93 93 N 22 35 29.92 1013 10 16 0.01 0.25
4:53 am 04:53 Cloudy with Light Rain 38 3.3 35 1.7 89 89 N 21 33 29.90 1013 9 14 0.01 0.25
5:14 am 05:14 Cloudy with Light Rain 37 2.8 35 1.7 93 93 N 22 35 29.92 1013 10 16 0.01 0.25
5:53 am 05:53 Cloudy with Rain 37 2.8 35 1.7 93 93 NNE 21 33 29.93 1014 5 8 0.04 1.02
6:53 am 06:53 Cloudy with Light Rain 36 2.2 35 1.7 97 97 NNE 18 30 29.96 1014 6 10 0.03 0.76
7:53 am 07:53 Cloudy with Light Rain 36 2.2 34 1.1 93 93 NNE 23 37 29.99 1016 7 11 0.02 0.51
8:53 am 08:53 Cloudy with Light Rain 35 1.7 33 0.6 93 93 NE 23 37 30.00 1016 9 14 0.03 0.76
9:42 am 09:42 Cloudy with Light Snow 34 1.1 33 0.6 97 97 NE 18 30 30.02 1017 3 5 0.01 0.25
9:53 am 09:53 Windy with Snow Likely 34 1.1 32 0 92 92 NE 23 37 30.02 1017 3 5 0.02 0.51
10:02 am 10:02 Windy with Snow Likely 34 1.1 33 0.6 97 97 NE 20 31 30.02 1017 2 3 0.00 0.00
10:08 am 10:08 Windy with Snow Likely 34 1.1 32 0 92 92 NE 20 31 30.02 1017 1 2 0.01 0.25
10:16 am 10:16 Windy with Snow Likely 33 0.6 32 0 96 96 NE 20 31 30.04 1017 1 1 0.02 0.51
10:27 am 10:27 Cloudy with Light Snow 34 1.1 33 0.6 97 97 NE 16 26 30.03 1017 3 5 0.02 0.51
10:48 am 10:48 Cloudy with Light Snow 34 1 34 1 100 100 NE 18 30 30.04 1017 2 3 0.03 0.76
10:53 am 10:53 Cloudy with Light Snow 35 1.7 33 0.6 93 93 NE 16 26 30.04 1017 2 3 0.03 0.76
10:57 am 10:57 Cloudy with Light Snow 35 1.7 33 0.6 93 93 NE 15 24 30.04 1017 1 1 0.00 0.00
11:06 am 11:06 Cloudy with Light Snow 34 1.1 33 0.6 97 97 NE 13 20 30.05 1018 1 2 0.01 0.25
11:53 am 11:53 Cloudy with Light Snow 36 2.2 34 1.1 93 93 NE 15 24 30.04 1017 3 4 0.03 0.76
12:08 pm 12:08 Cloudy with Mist and Fog 35 1.7 33 0.6 93 93 NE 18 30 30.06 1018 3 5 0.00 0.00
12:53 pm 12:53 Cloudy with Light Snow 35 1.7 33 0.6 93 93 NE 14 22 30.07 1018 3 5 0.00 0.00
1:02 pm 13:02 Cloudy with Light Snow 35 1.7 32 0 89 89 NNE 13 20 30.08 1018 2 3 0.00 0.00
1:18 pm 13:18 Cloudy with Light Snow 34 1.1 32 0 92 92 N 15 24 30.09 1019 1 2 0.01 0.25
1:34 pm 13:34 Cloudy with Light Snow 33 0.6 31 -0.6 92 92 N 14 22 30.10 1019 1 1 0.01 0.25
1:53 pm 13:53 Cloudy with Light Snow 33 0.6 32 0 96 96 N 10 17 30.10 1019 1 1 0.02 0.51
2:02 pm 14:02 Cloudy with Light Snow 34 1.1 32 0 92 92 N 17 28 30.10 1019 2 3 0.00 0.00
2:11 pm 14:11 Cloudy with Light Snow 34 1.1 32 0 92 92 N 15 24 30.10 1019 2 3 0.01 0.25
2:20 pm 14:20 Cloudy with Light Snow 34 1.1 32 0 92 92 N 12 19 30.10 1019 1 1 0.01 0.25
2:27 pm 14:27 Cloudy with Light Snow 34 1.1 32 0 92 92 N 16 26 30.10 1019 1 1 0.02 0.51
2:36 pm 14:36 Cloudy with Light Snow 34 1.1 32 0 92 92 N 15 24 30.11 1020 1 2 0.02 0.51
2:44 pm 14:44 Cloudy with Light Snow 33 0.6 32 0 96 96 N 14 22 30.12 1020 2 2 0.03 0.76
2:53 pm 14:53 Cloudy with Light Snow 33 0.6 31 -0.6 92 92 N 18 30 30.12 1020 1 2 0.03 0.76
3:07 pm 15:07 Cloudy with Light Snow 33 0.6 31 -0.6 92 92 NNW 15 24 30.13 1020 2 3 0.01 0.25
3:30 pm 15:30 Windy with Snow Likely 33 0.6 31 -0.6 92 92 N 20 31 30.13 1020 1 2 0.02 0.51
3:39 pm 15:39 Windy with Snow Likely 32 0 31 -0.6 96 96 NNW 20 31 30.15 1021 1 2 0.02 0.51
3:53 pm 15:53 Cloudy with Light Snow 32 0 30 -1.1 92 92 NNW 17 28 30.14 1021 2 2 0.03 0.76
4:05 pm 16:05 Windy with Snow Likely 32 0 30 -1.1 92 92 NNW 20 31 30.16 1021 2 3 0.00 0.00
4:17 pm 16:17 Cloudy with Light Snow 32 0 29 -1.7 88 88 NNW 17 28 30.17 1022 2 3 0.00 0.00
4:44 pm 16:44 Cloudy with Light Snow 31 -0.6 29 -1.7 92 92 N 14 22 30.19 1022 3 5 0.00 0.00
4:46 pm 16:46 Cloudy with Light Snow 31 -0.6 29 -1.7 92 92 NNW 13 20 30.20 1023 3 4 0.00 0.00
4:53 pm 16:53 Cloudy with Light Snow 31 -0.6 29 -1.7 92 92 NNW 14 22 30.18 1022 3 4 0.01 0.25
5:07 pm 17:07 Cloudy with Light Snow 31 -0.6 29 -1.7 92 92 NNW 14 22 30.20 1023 1 2 0.00 0.00
5:16 pm 17:16 Cloudy with Snow 30 -1.1 29 -1.7 96 96 NNW 15 24 30.21 1023 1 1 0.02 0.51
5:53 pm 17:53 Mostly Cloudy with Heavy Snow 30 -1.1 29 -1.7 96 96 NNW 12 19 30.21 1023 0 0 0.07 1.78
6:13 pm 18:13 Mostly Cloudy with Heavy Snow 30 -1.1 29 -1.7 96 96 N 13 20 30.24 1024 0 0 0.04 1.02
6:53 pm 18:53 Cloudy with Snow 29 -1.7 28 -2.2 96 96 NNW 14 22 30.23 1024 0 0 0.09 2.29
7:05 pm 19:05 Cloudy with Light Snow 29 -1.7 27 -2.8 92 92 NNW 15 24 30.25 1024 1 1 0.01 0.25
7:18 pm 19:18 Cloudy with Snow 29 -1.7 27 -2.8 92 92 NNW 17 28 30.25 1024 1 1 0.02 0.51
7:49 pm 19:49 Cloudy with Light Snow 28 -2 27 -3 93 93 NNW 15 24 30.26 1025 1 2 0.03 0.76
7:53 pm 19:53 Cloudy with Light Snow 28 -2.2 26 -3.3 92 92 NNW 14 22 30.24 1024 1 2 0.03 0.76
8:09 pm 20:09 Cloudy with Light Snow 28 -2.2 26 -3.3 92 92 NNW 15 24 30.28 1025 2 2 0.01 0.25
8:19 pm 20:19 Cloudy with Light Snow 28 -2.2 26 -3.3 92 92 NNW 14 22 30.29 1026 1 2 0.01 0.25
8:53 pm 20:53 Cloudy with Light Snow 27 -2.8 25 -3.9 92 92 N 14 22 30.28 1026 2 3 0.01 0.25
9:05 pm 21:05 Cloudy with Light Snow 27 -2.8 25 -3.9 92 92 NNW 13 20 30.31 1027 3 5 0.00 0.00
9:53 pm 21:53 Cloudy with Light Snow 27 -2.8 25 -3.9 92 92 NNW 12 19 30.29 1026 5 8 0.00 0.00
10:53 pm 22:53 Cloudy with Light Snow 27 -2.8 25 -3.9 92 92 N 10 17 30.29 1026 6 10 0.01 0.25
11:53 pm 23:53 Cloudy 27 -2.8 25 -3.9 92 92 N 12 19 30.30 1026 10 16 0.00 0.00

Powered by AerisWeather